sat.trackr.live / text

‹ back to catalog

XIWANG-1 (HOPE-1)

NORAD 36122 · 2009-072B

PAYLOAD ACTIVE UNKNOWN

§ Identity

Operator
Country
PRC
Launch date
2009-12-15
Launch site
TAISC
Launch vehicle
Mass (kg)
RCS (m²)
0.31

Purposes: comms

External: N2YO · Heavens-Above · Gunter

§ Orbital elements

Epoch: 2026-09-10T05:03:34.523136Z

Period
109.39 min
Inclination
100.4103°
Eccentricity
0.0008084
Mean motion
13.16443194 rev/d
Perigee alt
1,192.2 km
Apogee alt
1,204.5 km
Semi-major
7,576.5 km
B*
8.6380e-4
RAAN
205.7103°
Arg perigee
43.0474°
Mean anomaly
317.1270°
Rev number
80,419

§ Raw data

XIWANG-1 (HOPE-1)1 36122U 09072B   26253.21081624  .00000285  00000+0  86380-3 0  99962 36122 100.4103 205.7103 0008084  43.0474 317.1270 13.16443194804194

JSON: /api/v1/satellites/36122 · /tle

For live sub-satellite position, see the globe view (requires WebGL).

§ Visibility from observer

Set your observer location to see the next 7 days of passes ≥ 10°. The values pass through the URL so the page stays shareable.

No JS? Fill the form by hand. The geolocation button needs JavaScript.

§ Radio — SatNOGS DB

ModeDescriptionDownlinkUplink
CW CW Beacon 435.791 MHz
FM Mode V/U FM 435.675 MHz 145.825 MHz
AFSK Mode V/U BBS AFSK (inactive) 435.675 MHz 145.825 MHz
FMN Mode V/U Linear (inactive) 435.715 MHz–435.765 MHz 145.925 MHz–145.975 MHz

4 transmitters · refreshed weekly from db.satnogs.org